{"data":{"norad_id":89183,"intl_designator":"","name":"UNKNOWN","alt_names":[],"object_type":"UNKNOWN","status":"UNKNOWN","operator":null,"country":null,"launch_date":null,"launch_site_code":null,"launch_vehicle":null,"mission":null,"orbit_class":"UNKNOWN","rcs_meters":null,"size_class":null,"mass_kg":null,"dimensions":null,"purposes":[],"wikipedia_slug":null,"has_3d_model":false,"image_url":null,"decayed_at":null,"tle_current":{"epoch":"2026-05-21T13:53:30.596640Z","epoch_age_seconds":366750,"freshness":"STALE","line1":"1 89183U          26141.57882635  .00000395  00000+0  38231-3 0  9993","line2":"2 89183  99.2159  54.0109 0131529  90.9024 270.7202 13.81780293629043","mean_motion":13.81780293,"eccentricity":0.0131529,"inclination_deg":99.2159,"raan_deg":54.0109,"arg_perigee_deg":90.9024,"mean_anomaly_deg":270.7202,"bstar":0.00038231,"rev_number":62904,"period_min":104.21338379878,"perigee_km":861.09309882434,"apogee_km":1054.0649777848,"semimajor_km":7335.7160383046,"source":"CELESTRAK","updated_at":"2026-05-25T13:38:11.778757Z"}}}